KQA461 HKJK-HUEN

Flight info

Callsign KQA461
Flight time 0h 57m
Altitude 32000
Route IBRAT3E APKUB UQ293 IMPOG IMPOG1C
Aircraft B738/M-SDE2E3FGHIRWXY/LB1

Departure

Time 2026-04-26 13:27
Airport Jomo Kenyatta International Airport (HKJK)

Arrival

Time 2026-04-26 14:25
Airport Entebbe International Airport (HUEN)
Time Latitude Longitude Altitude Speed Heading
2026-04-26 12:51 -1.32853 36.92487 5336 ft 0 kts 175°
2026-04-26 13:15 -1.32841 36.92487 5336 ft 2 kts 177°
2026-04-26 13:15 -1.32824 36.92486 5336 ft 2 kts 180°
2026-04-26 13:15 -1.32808 36.92486 5336 ft 2 kts 185°
2026-04-26 13:15 -1.32792 36.92489 5336 ft 2 kts 194°
2026-04-26 13:16 -1.32777 36.92494 5336 ft 2 kts 214°
2026-04-26 13:16 -1.32768 36.92502 5336 ft 2 kts 253°
2026-04-26 13:16 -1.32766 36.92516 5336 ft 2 kts 270°
2026-04-26 13:16 -1.32766 36.92531 5336 ft 2 kts 270°
2026-04-26 13:17 -1.32766 36.92535 5336 ft 2 kts 270°
2026-04-26 13:21 -1.32766 36.92502 5336 ft 8 kts 270°
2026-04-26 13:22 -1.32774 36.92434 5336 ft 8 kts 259°
2026-04-26 13:22 -1.32739 36.92390 5336 ft 10 kts 325°
2026-04-26 13:22 -1.32689 36.92354 5336 ft 8 kts 318°
2026-04-26 13:22 -1.32688 36.92289 5336 ft 8 kts 234°
2026-04-26 13:23 -1.32729 36.92234 5336 ft 12 kts 233°
2026-04-26 13:23 -1.32782 36.92163 5336 ft 15 kts 233°
2026-04-26 13:23 -1.32837 36.92089 5336 ft 7 kts 237°
2026-04-26 13:23 -1.32838 36.92019 5336 ft 14 kts 280°
2026-04-26 13:24 -1.32823 36.91930 5336 ft 9 kts 279°
2026-04-26 13:24 -1.32821 36.91857 5336 ft 12 kts 248°
2026-04-26 13:24 -1.32849 36.91807 5336 ft 10 kts 239°
2026-04-26 13:24 -1.32872 36.91741 5336 ft 9 kts 288°
2026-04-26 13:25 -1.32825 36.91697 5336 ft 10 kts 324°
2026-04-26 13:25 -1.32770 36.91664 5336 ft 9 kts 349°
2026-04-26 13:25 -1.32719 36.91690 5336 ft 6 kts 53°
2026-04-26 13:25 -1.32715 36.91696 5336 ft 0 kts 54°
2026-04-26 13:26 -1.32654 36.91780 5336 ft 44 kts 54°
2026-04-26 13:26 -1.32328 36.92229 5336 ft 112 kts 53°
2026-04-26 13:26 -1.31750 36.93020 5338 ft 168 kts 53°
2026-04-26 13:27 -1.30994 36.94039 5720 ft 191 kts 53°
2026-04-26 13:27 -1.30181 36.95115 6606 ft 190 kts 53°
2026-04-26 13:27 -1.29406 36.96140 7596 ft 182 kts 53°
2026-04-26 13:27 -1.28609 36.97192 8061 ft 200 kts 53°
2026-04-26 13:28 -1.27720 36.98368 8344 ft 224 kts 53°
2026-04-26 13:28 -1.26730 36.99676 8608 ft 248 kts 52°
2026-04-26 13:28 -1.25697 37.01171 8892 ft 275 kts 53°
2026-04-26 13:28 -1.24569 37.02804 9355 ft 294 kts 53°
2026-04-26 13:29 -1.23386 37.04514 10049 ft 303 kts 53°
2026-04-26 13:29 -1.22533 37.05634 10562 ft 307 kts 45°
2026-04-26 13:29 -1.20138 37.07240 11194 ft 322 kts 16°
2026-04-26 13:29 -1.17902 37.07608 11610 ft 331 kts 355°
2026-04-26 13:30 -1.15658 37.07139 12284 ft 331 kts 334°
2026-04-26 13:30 -1.13729 37.05908 13072 ft 329 kts 314°
2026-04-26 13:30 -1.12368 37.04095 13851 ft 328 kts 295°
2026-04-26 13:30 -1.11554 37.01960 14630 ft 331 kts 286°
2026-04-26 13:31 -1.10886 36.99750 15382 ft 334 kts 285°
2026-04-26 13:31 -1.10237 36.97504 16121 ft 338 kts 285°
2026-04-26 13:31 -1.09584 36.95236 16839 ft 342 kts 285°
2026-04-26 13:31 -1.08922 36.92940 17540 ft 346 kts 285°
2026-04-26 13:32 -1.08254 36.90618 18224 ft 349 kts 285°
2026-04-26 13:32 -1.07577 36.88268 18735 ft 355 kts 285°
2026-04-26 13:32 -1.06892 36.85891 18967 ft 358 kts 285°
2026-04-26 13:32 -1.06205 36.83505 18994 ft 357 kts 285°
2026-04-26 13:33 -1.05521 36.81131 18996 ft 354 kts 285°
2026-04-26 13:33 -1.04816 36.78771 18997 ft 354 kts 286°
2026-04-26 13:33 -1.04086 36.76441 19128 ft 359 kts 286°
2026-04-26 13:33 -1.03337 36.74049 19826 ft 360 kts 286°
2026-04-26 13:34 -1.02589 36.71658 20533 ft 362 kts 286°
2026-04-26 13:34 -1.01835 36.69248 21126 ft 366 kts 286°
2026-04-26 13:34 -1.01072 36.66808 21698 ft 369 kts 286°
2026-04-26 13:34 -1.00812 36.65976 21889 ft 370 kts 286°
2026-04-26 13:35 -0.99526 36.61863 22801 ft 376 kts 286°
2026-04-26 13:35 -0.98743 36.59360 23328 ft 379 kts 286°
2026-04-26 13:35 -0.97954 36.56834 23843 ft 382 kts 286°
2026-04-26 13:35 -0.97158 36.54290 24341 ft 386 kts 286°
2026-04-26 13:36 -0.96354 36.51717 24827 ft 389 kts 286°
2026-04-26 13:36 -0.95546 36.49131 25296 ft 392 kts 286°
2026-04-26 13:36 -0.94731 36.46521 25755 ft 395 kts 286°
2026-04-26 13:36 -0.93910 36.43893 26212 ft 397 kts 286°
2026-04-26 13:37 -0.93090 36.41268 26803 ft 395 kts 286°
2026-04-26 13:37 -0.92274 36.38657 27426 ft 393 kts 286°
2026-04-26 13:37 -0.91462 36.36057 27990 ft 392 kts 286°
2026-04-26 13:37 -0.90912 36.34296 28344 ft 391 kts 286°
2026-04-26 13:38 -0.90102 36.31705 28876 ft 390 kts 286°
2026-04-26 13:38 -0.89294 36.29120 29392 ft 389 kts 286°
2026-04-26 13:38 -0.88488 36.26539 29895 ft 389 kts 286°
2026-04-26 13:38 -0.87684 36.23968 30383 ft 388 kts 286°
2026-04-26 13:39 -0.86881 36.21398 30861 ft 387 kts 286°
2026-04-26 13:39 -0.86080 36.18834 31326 ft 386 kts 286°
2026-04-26 13:39 -0.85280 36.16276 31779 ft 385 kts 286°
2026-04-26 13:39 -0.84466 36.13671 31954 ft 390 kts 286°
2026-04-26 13:40 -0.83666 36.11113 31989 ft 391 kts 286°
2026-04-26 13:40 -0.82043 36.05921 31996 ft 386 kts 286°
2026-04-26 13:41 -0.80457 36.00848 31997 ft 385 kts 286°
2026-04-26 13:41 -0.78859 35.95735 31997 ft 385 kts 286°
2026-04-26 13:42 -0.77263 35.90628 31997 ft 385 kts 286°
2026-04-26 13:42 -0.75666 35.85520 31997 ft 385 kts 286°
2026-04-26 13:43 -0.74057 35.80377 31997 ft 385 kts 286°
2026-04-26 13:43 -0.72470 35.75299 31997 ft 385 kts 286°
2026-04-26 13:44 -0.70871 35.70186 31996 ft 385 kts 286°
2026-04-26 13:44 -0.69272 35.65072 31997 ft 385 kts 286°
2026-04-26 13:45 -0.67674 35.59963 31997 ft 385 kts 286°
2026-04-26 13:45 -0.66077 35.54855 31997 ft 385 kts 286°
2026-04-26 13:46 -0.64479 35.49745 31996 ft 385 kts 286°
2026-04-26 13:46 -0.62869 35.44597 31997 ft 385 kts 286°
2026-04-26 13:47 -0.61281 35.39522 31997 ft 385 kts 286°
2026-04-26 13:47 -0.59685 35.34419 31997 ft 385 kts 286°
2026-04-26 13:48 -0.58087 35.29309 31997 ft 385 kts 286°
2026-04-26 13:48 -0.56489 35.24200 31997 ft 385 kts 286°
2026-04-26 13:49 -0.54890 35.19087 31997 ft 385 kts 286°
2026-04-26 13:49 -0.53292 35.13980 31997 ft 385 kts 286°
2026-04-26 13:50 -0.51682 35.08834 31996 ft 385 kts 286°
2026-04-26 13:50 -0.50083 35.03722 31999 ft 396 kts 286°
2026-04-26 13:51 -0.48398 34.98336 31998 ft 410 kts 286°
2026-04-26 13:51 -0.46706 34.92928 31997 ft 409 kts 286°
2026-04-26 13:52 -0.45012 34.87514 31997 ft 408 kts 286°
2026-04-26 13:52 -0.43318 34.82099 31997 ft 408 kts 286°
2026-04-26 13:53 -0.41622 34.76677 31997 ft 408 kts 286°
2026-04-26 13:53 -0.39939 34.71299 31706 ft 399 kts 286°
2026-04-26 13:53 -0.39114 34.68660 31427 ft 398 kts 286°
2026-04-26 13:54 -0.38286 34.66014 31200 ft 402 kts 286°
2026-04-26 13:54 -0.37447 34.63334 30976 ft 406 kts 286°
2026-04-26 13:54 -0.36602 34.60634 30752 ft 409 kts 286°
2026-04-26 13:55 -0.34899 34.55189 30302 ft 411 kts 286°
2026-04-26 13:55 -0.34322 34.53346 30150 ft 411 kts 286°
2026-04-26 13:55 -0.32336 34.46999 29626 ft 412 kts 286°
2026-04-26 13:56 -0.31481 34.44266 29402 ft 413 kts 286°
2026-04-26 13:56 -0.30622 34.41523 29176 ft 413 kts 286°
2026-04-26 13:56 -0.29766 34.38785 28951 ft 413 kts 286°
2026-04-26 13:56 -0.28908 34.36043 28726 ft 414 kts 286°
2026-04-26 13:57 -0.28048 34.33296 28501 ft 414 kts 286°
2026-04-26 13:57 -0.27187 34.30544 28276 ft 415 kts 286°
2026-04-26 13:57 -0.26328 34.27798 28051 ft 415 kts 286°
2026-04-26 13:57 -0.25465 34.25039 27825 ft 416 kts 286°
2026-04-26 13:58 -0.24605 34.22288 27601 ft 416 kts 286°
2026-04-26 13:58 -0.23742 34.19530 27376 ft 416 kts 286°
2026-04-26 13:58 -0.22878 34.16769 27151 ft 417 kts 286°
2026-04-26 13:58 -0.22012 34.14001 26926 ft 417 kts 286°
2026-04-26 13:59 -0.21145 34.11231 26701 ft 418 kts 286°
2026-04-26 13:59 -0.20279 34.08461 26475 ft 418 kts 286°
2026-04-26 13:59 -0.19411 34.05689 26250 ft 419 kts 286°
2026-04-26 14:00 -0.16771 33.97420 25576 ft 416 kts 289°
2026-04-26 14:00 -0.15670 33.94717 25348 ft 415 kts 292°
2026-04-26 14:00 -0.14896 33.92963 25199 ft 414 kts 292°
2026-04-26 14:01 -0.13364 33.89485 24900 ft 412 kts 292°
2026-04-26 14:01 -0.12225 33.86862 24649 ft 410 kts 292°
2026-04-26 14:01 -0.11099 33.84252 24374 ft 408 kts 292°
2026-04-26 14:01 -0.09979 33.81644 24074 ft 407 kts 292°
2026-04-26 14:02 -0.08854 33.79019 23720 ft 404 kts 292°
2026-04-26 14:02 -0.07767 33.76478 23353 ft 402 kts 292°
2026-04-26 14:02 -0.06671 33.73917 22977 ft 399 kts 291°
2026-04-26 14:02 -0.05569 33.71340 22596 ft 397 kts 291°
2026-04-26 14:03 -0.04502 33.68846 22225 ft 395 kts 291°
2026-04-26 14:03 -0.03413 33.66300 21845 ft 392 kts 291°
2026-04-26 14:03 -0.02347 33.63806 21470 ft 390 kts 291°
2026-04-26 14:03 -0.01284 33.61320 21093 ft 388 kts 291°
2026-04-26 14:04 -0.00229 33.58852 20718 ft 385 kts 291°
2026-04-26 14:04 0.00820 33.56399 20343 ft 383 kts 291°
2026-04-26 14:04 0.01864 33.53958 19967 ft 381 kts 291°
2026-04-26 14:04 0.02897 33.51531 19590 ft 378 kts 291°
2026-04-26 14:05 0.03845 33.49084 19215 ft 376 kts 289°
2026-04-26 14:05 0.04700 33.46665 18845 ft 374 kts 288°
2026-04-26 14:05 0.05545 33.44216 18468 ft 372 kts 288°
2026-04-26 14:05 0.06394 33.41782 18093 ft 370 kts 288°
2026-04-26 14:06 0.07255 33.39339 17713 ft 368 kts 288°
2026-04-26 14:06 0.08107 33.36932 17336 ft 365 kts 288°
2026-04-26 14:06 0.08954 33.34549 16960 ft 364 kts 288°
2026-04-26 14:06 0.09799 33.32177 16589 ft 361 kts 288°
2026-04-26 14:07 0.10639 33.29822 16290 ft 360 kts 288°
2026-04-26 14:07 0.11479 33.27468 15988 ft 358 kts 288°
2026-04-26 14:07 0.12305 33.25156 15692 ft 357 kts 288°
2026-04-26 14:07 0.13131 33.22848 15441 ft 349 kts 288°
2026-04-26 14:08 0.13934 33.20600 15189 ft 339 kts 288°
2026-04-26 14:08 0.14728 33.18380 14934 ft 330 kts 288°
2026-04-26 14:08 0.15492 33.16244 14682 ft 323 kts 288°
2026-04-26 14:08 0.16238 33.14158 14431 ft 316 kts 288°
2026-04-26 14:09 0.16969 33.12113 14179 ft 309 kts 288°
2026-04-26 14:09 0.17675 33.10138 13931 ft 303 kts 288°
2026-04-26 14:09 0.18378 33.08171 13679 ft 298 kts 288°
2026-04-26 14:09 0.19068 33.06244 13429 ft 293 kts 288°
2026-04-26 14:10 0.19746 33.04346 13177 ft 288 kts 288°
2026-04-26 14:10 0.20415 33.02478 12926 ft 283 kts 288°
2026-04-26 14:10 0.21074 33.00633 12674 ft 279 kts 288°
2026-04-26 14:10 0.21722 32.98821 12424 ft 276 kts 288°
2026-04-26 14:11 0.22996 32.95260 11921 ft 269 kts 288°
2026-04-26 14:11 0.23622 32.93509 11670 ft 265 kts 288°
2026-04-26 14:11 0.24247 32.91761 11416 ft 262 kts 288°
2026-04-26 14:12 0.24849 32.90075 11168 ft 259 kts 288°
2026-04-26 14:12 0.25452 32.88390 10912 ft 254 kts 288°
2026-04-26 14:12 0.26030 32.86772 10651 ft 240 kts 288°
2026-04-26 14:12 0.26577 32.85242 10394 ft 229 kts 288°
2026-04-26 14:13 0.27644 32.82258 9898 ft 227 kts 288°
2026-04-26 14:13 0.28174 32.80777 9647 ft 225 kts 288°
2026-04-26 14:13 0.28701 32.79305 9396 ft 224 kts 288°
2026-04-26 14:14 0.29222 32.77847 9145 ft 222 kts 288°
2026-04-26 14:14 0.29723 32.76395 8890 ft 220 kts 284°
2026-04-26 14:14 0.29911 32.74889 8639 ft 217 kts 271°
2026-04-26 14:14 0.29832 32.73390 8389 ft 216 kts 264°
2026-04-26 14:15 0.29705 32.72406 8224 ft 215 kts 262°
2026-04-26 14:15 0.29473 32.70935 7972 ft 213 kts 262°
2026-04-26 14:15 0.29245 32.69474 7722 ft 213 kts 262°
2026-04-26 14:15 0.28954 32.67527 7387 ft 211 kts 262°
2026-04-26 14:16 0.28814 32.66565 7221 ft 211 kts 262°
2026-04-26 14:16 0.28605 32.65119 7002 ft 211 kts 263°
2026-04-26 14:16 0.28396 32.63649 6983 ft 217 kts 262°
2026-04-26 14:16 0.28181 32.62131 7004 ft 224 kts 262°
2026-04-26 14:17 0.27962 32.60577 7006 ft 228 kts 262°
2026-04-26 14:17 0.27739 32.58995 7005 ft 231 kts 262°
2026-04-26 14:17 0.27515 32.57403 7001 ft 231 kts 262°
2026-04-26 14:17 0.27291 32.55816 7000 ft 230 kts 262°
2026-04-26 14:18 0.27069 32.54235 6999 ft 230 kts 262°
2026-04-26 14:18 0.26844 32.52648 6999 ft 230 kts 262°
2026-04-26 14:18 0.26620 32.51064 6999 ft 230 kts 262°
2026-04-26 14:18 0.26396 32.49479 6999 ft 230 kts 262°
2026-04-26 14:19 0.26172 32.47895 6999 ft 230 kts 262°
2026-04-26 14:19 0.25947 32.46308 6999 ft 230 kts 262°
2026-04-26 14:19 0.25723 32.44722 6999 ft 230 kts 262°
2026-04-26 14:19 0.25496 32.43144 6998 ft 229 kts 261°
2026-04-26 14:20 0.24883 32.41698 6945 ft 229 kts 230°
2026-04-26 14:20 0.23534 32.40909 6942 ft 229 kts 193°
2026-04-26 14:20 0.21943 32.40965 6811 ft 233 kts 169°
2026-04-26 14:20 0.20344 32.41354 6491 ft 238 kts 166°
2026-04-26 14:21 0.18728 32.41694 6229 ft 232 kts 169°
2026-04-26 14:21 0.17201 32.41954 5986 ft 214 kts 171°
2026-04-26 14:21 0.15804 32.42180 5785 ft 191 kts 171°
2026-04-26 14:21 0.14573 32.42378 5587 ft 169 kts 171°
2026-04-26 14:22 0.13465 32.42535 5492 ft 156 kts 173°
2026-04-26 14:22 0.12394 32.42643 5333 ft 151 kts 175°
2026-04-26 14:22 0.11357 32.42766 5077 ft 149 kts 173°
2026-04-26 14:22 0.10339 32.42910 4827 ft 146 kts 172°
2026-04-26 14:23 0.09342 32.43060 4619 ft 145 kts 171°
2026-04-26 14:23 0.08345 32.43212 4357 ft 145 kts 171°
2026-04-26 14:23 0.07353 32.43359 4188 ft 144 kts 171°
2026-04-26 14:23 0.06361 32.43515 3966 ft 144 kts 171°
2026-04-26 14:24 0.05371 32.43654 3800 ft 143 kts 172°
2026-04-26 14:24 0.04394 32.43788 3792 ft 144 kts 173°
2026-04-26 14:24 0.03481 32.43910 3791 ft 109 kts 172°
2026-04-26 14:24 0.02920 32.43988 3790 ft 57 kts 173°
2026-04-26 14:25 0.02627 32.44028 3790 ft 36 kts 173°
2026-04-26 14:25 0.02419 32.44058 3790 ft 17 kts 173°
2026-04-26 14:25 0.02343 32.44076 3790 ft 4 kts 134°
2026-04-26 14:25 0.02332 32.44094 3790 ft 0 kts 113°
2026-04-26 14:28 0.02331 32.44096 3790 ft 2 kts 113°
2026-04-26 14:28 0.02321 32.44138 3790 ft 10 kts 82°
2026-04-26 14:28 0.02369 32.44174 3790 ft 11 kts 358°
2026-04-26 14:29 0.02434 32.44166 3790 ft 11 kts 353°
2026-04-26 14:29 0.02535 32.44153 3790 ft 18 kts 352°
2026-04-26 14:29 0.02624 32.44141 3790 ft 14 kts 352°
2026-04-26 14:29 0.02717 32.44129 3790 ft 11 kts 353°
2026-04-26 14:30 0.02812 32.44117 3790 ft 9 kts 353°
2026-04-26 14:30 0.02874 32.44109 3790 ft 7 kts 353°
2026-04-26 14:30 0.02949 32.44099 3790 ft 14 kts 353°
2026-04-26 14:30 0.03051 32.44086 3790 ft 10 kts 353°
2026-04-26 14:31 0.03112 32.44078 3790 ft 4 kts 353°
2026-04-26 14:31 0.03182 32.44068 3790 ft 14 kts 352°
2026-04-26 14:31 0.03307 32.44053 3790 ft 23 kts 353°
2026-04-26 14:31 0.03480 32.44029 3790 ft 27 kts 352°
2026-04-26 14:32 0.03650 32.44007 3790 ft 25 kts 353°
2026-04-26 14:32 0.03791 32.43989 3790 ft 18 kts 353°
2026-04-26 14:32 0.03926 32.43971 3790 ft 21 kts 352°
2026-04-26 14:32 0.04052 32.43956 3790 ft 8 kts
2026-04-26 14:33 0.04077 32.44015 3790 ft 13 kts 81°
2026-04-26 14:33 0.04098 32.44072 3790 ft 8 kts 28°
2026-04-26 14:33 0.04178 32.44062 3790 ft 13 kts 347°
2026-04-26 14:33 0.04283 32.44044 3790 ft 10 kts 353°
2026-04-26 14:34 0.04346 32.44037 3790 ft 6 kts
2026-04-26 14:34 0.04356 32.44042 3790 ft 1 kts 46°
2026-04-26 14:34 0.04358 32.44050 3790 ft 1 kts 90°
2026-04-26 14:34 0.04361 32.44107 3790 ft 12 kts 83°
2026-04-26 14:35 0.04369 32.44175 3790 ft 4 kts 83°
2026-04-26 14:35 0.04374 32.44205 3790 ft 0 kts 79°
2026-04-26 14:35 0.04374 32.44206 3790 ft 0 kts 81°